Home > Weather > Vejle > Past weeks

Flag for Denmark Weather for the Past 2 Weeks in Vejle, Denmark

Now
36 °F

Ice fog.


Feels Like: 33 °F
Forecast: 36 / 60 °F
Wind: 3 mph from West

Location: Billund Lufthavn

Current Time: May 4, 2016 at 3:00:52 AM

Latest Report: May 4, 2016 at 2:20 AM


Visibility: 0 mi

Pressure: 30.27 "Hg

Humidity: 100%

Dew Point: 36 °F

Location of VejleLocation

Historic Weather in Vejle — Graph

°F

Vejle Temperature Yesterday

Maximum temperature yesterday: 54 °F (at 2:50 PM)
Minimum temperature yesterday: 39 °F (at 11:50 PM)
Average temperature yesterday: 48 °F

High & Low Weather Summary for the Past Weeks

 TemperatureHumidityPressure
High61 °F (May 2, 1:50 PM)100% (Apr 21, 3:50 AM)30.36 "Hg (Apr 21, 3:50 AM)
Low27 °F (Apr 25, 5:50 AM)36% (May 1, 5:20 PM)29.33 "Hg (Apr 26, 8:50 AM)
Average42 °F78%29.94 "Hg
* Reported Apr 19 1:20 AM — May 4 1:50 AM, Vejle, Weather by CustomWeather, © 2016

Note: Actual official high and low records may vary slightly from our data, if they occured in-between our weather recording intervals... More about our weather records

Advertising

Vejle Weather History for the Previous 24 Hours

Scroll right to see more
 ConditionsComfort  
Time TempWeatherWind HumidityBarometerVisibility
1:50 AM
Wed, May 4
36 °FIce fog.3 mph100%30.27 "Hg1 mi
12:50 AM39 °FLight fog.3 mph93%30.27 "Hg1 mi
12:20 AM39 °FFog.6 mph93%30.27 "Hg2 mi
11:50 PM
Tue, May 3
39 °FChilly.6 mph93%30.24 "HgN/A
11:20 PM41 °FQuite cool.6 mph93%30.24 "HgN/A
10:50 PM41 °FQuite cool.6 mph93%30.24 "HgN/A
10:20 PM41 °FQuite cool.7 mph87%30.24 "HgN/A
9:50 PM41 °FQuite cool.8 mph87%30.21 "HgN/A
9:20 PM43 °FQuite cool.9 mph81%30.21 "HgN/A
8:50 PM45 °FPassing clouds.10 mph81%30.18 "HgN/A
8:20 PM46 °FBroken clouds.15 mph71%30.18 "HgN/A
7:50 PM46 °FScattered clouds.16 mph71%30.18 "HgN/A
7:20 PM46 °FPassing clouds.15 mph71%30.15 "HgN/A
6:50 PM50 °FPassing clouds.14 mph62%30.15 "HgN/A
6:20 PM50 °FPartly sunny.14 mph62%30.15 "HgN/A
5:50 PM52 °FPassing clouds.15 mph62%30.15 "HgN/A
5:20 PM52 °FScattered clouds.15 mph62%30.12 "HgN/A
4:50 PM52 °FPassing clouds.14 mph58%30.12 "HgN/A
4:20 PM52 °FPassing clouds.17 mph62%30.12 "HgN/A
3:50 PM52 °FScattered clouds.18 mph67%30.09 "HgN/A
2:50 PM54 °FScattered clouds.15 mph63%30.09 "HgN/A
2:20 PM52 °FScattered clouds.15 mph67%30.07 "HgN/A
1:20 PM52 °FScattered clouds.12 mph72%30.07 "HgN/A
12:50 PM52 °FPartly sunny.9 mph77%30.04 "HgN/A
12:20 PM50 °FBroken clouds.9 mph88%30.04 "HgN/A
11:59 AM48 °FBroken clouds.7 mph94%30.04 "HgN/A
11:20 AM48 °FOvercast.9 mph87%30.04 "HgN/A
10:50 AM48 °FDrizzle. Low clouds.8 mph87%30.01 "HgN/A
10:20 AM46 °FDrizzle. More clouds than sun.9 mph93%30.01 "HgN/A
9:50 AM46 °FLight rain. More clouds than sun.9 mph93%30.01 "HgN/A
9:20 AM46 °FDrizzle. Low clouds.9 mph93%29.98 "HgN/A
8:50 AM46 °FLight rain. Broken clouds.12 mph93%29.98 "HgN/A
8:20 AM46 °FRain. Mostly cloudy.10 mph93%29.95 "Hg2 mi
7:20 AM48 °FMostly cloudy.6 mph94%29.95 "Hg3 mi
6:50 AM48 °FDrizzle. Overcast.7 mph94%29.95 "Hg3 mi
6:20 AM48 °FLight rain. Overcast.7 mph94%29.95 "Hg3 mi
5:50 AM48 °FSprinkles. Mostly cloudy.6 mph87%29.95 "Hg4 mi
5:20 AM48 °FSprinkles. Mostly cloudy.6 mph87%29.95 "Hg5 mi
4:50 AM50 °FDrizzle. Overcast.6 mph82%29.95 "Hg6 mi
4:20 AM48 °FDrizzle. Overcast.6 mph87%29.98 "Hg6 mi
3:50 AM48 °FDrizzle. Overcast.5 mph87%29.98 "Hg5 mi
3:20 AM50 °FLight rain. Overcast.3 mph82%29.98 "HgN/A
Weather by CustomWeather, © 2016

See weather overviewHow to use our weather pages